[[{"header":{"parameterUnit":"m.s-1","parameterCategory":1,"la1":30.2991,"la2":30.254,"lo1":-89.0895,"lo2":-89.0444,"dy":0.0017,"dx":0.0017,"nx":28,"ny":28,"refTime":"2025-12-04T03:00:00:Z","depth":0,"parameterNumber":2,"parameterNumberName":"U-component_of_WINDS"},"data":[0,0,0,0,0,0,0,0,0,0,0,0,0,0,0,0,0,0,0,0,0,0,0,0,0,0,0,0,0,0,0,0,0,0,0,0,0,0,0,0,0,0,0,0,0,0,0,0,0,0,0,0,0,0,0,0,0,0,-2.5197,-2.5196,0,-2.5091,-2.509,-2.5089,-2.4939,-2.4937,-2.4934,-2.4932,-2.4821,-2.482,-2.482,0,0,0,0,0,0,0,0,0,0,0,0,0,-2.5272,-2.5272,-2.5198,-2.5196,-2.5195,-2.5091,-2.509,-2.5088,-2.494,-2.4937,-2.4934,-2.4931,-2.4821,-2.482,-2.482,0,0,0,0,0,0,0,0,0,0,0,0,0,-2.521,-2.5271,-2.5198,-2.5108,-2.5099,-2.5091,-2.509,-2.5088,-2.494,-2.4937,-2.4933,-2.4929,-2.4821,-2.482,-2.4819,-2.489,0,0,-2.4817,-2.4816,0,0,0,0,0,0,0,0,-2.5214,-2.5208,-2.5123,-2.5115,-2.5104,-2.5025,-2.5075,-2.5021,-2.4941,-2.5001,-2.4932,-2.4927,-2.4892,-2.4885,-2.4873,-2.4885,-2.488,-2.4817,-2.4816,-2.4816,-2.4815,0,0,0,0,0,0,0,-2.5218,-2.5211,-2.5155,-2.5122,-2.5111,-2.5074,-2.5061,-2.5064,-2.4969,-2.4995,-2.4984,-2.4974,-2.4886,-2.4874,-2.4869,-2.4878,-2.4817,-2.4816,-2.4815,-2.4815,-2.4944,-2.4948,0,0,0,0,0,0,-2.5236,-2.5216,-2.5159,-2.5152,-2.5151,-2.5075,-2.5061,-2.5054,-2.4968,-2.4952,-2.4977,-2.4967,-2.4878,-2.487,-2.4865,-2.4942,-2.4816,-2.4815,-2.4814,-2.494,-2.4945,-2.495,0,0,0,0,0,0,-2.5238,-2.5232,-2.5163,-2.5181,-2.5169,-2.5078,-2.5072,-2.5054,-2.5042,-2.4955,-2.4937,-2.4983,-2.4874,-2.4866,-2.4885,-2.4936,-2.4814,-2.4814,-2.4936,-2.4942,-2.4947,-2.5099,0,0,0,0,0,0,-2.5241,-2.5234,-2.526,-2.5183,-2.5169,-2.5186,-2.5075,-2.5055,-2.5041,-2.5027,-2.4955,-2.494,-2.4871,-2.4888,-2.4885,-2.4933,-2.4813,-2.4931,-2.4938,-2.4946,-2.5089,-2.5109,-2.5126,0,0,0,0,0,-2.5244,-2.5306,-2.5262,-2.5256,-2.5199,-2.5189,-2.5181,-2.5101,-2.5046,-2.5071,-2.5015,-2.4942,-2.4932,-2.4891,-2.4886,-2.4935,-2.4927,-2.4936,-2.4945,-2.508,-2.5105,-2.5126,0,0,0,0,0,0,-2.539,-2.5294,-2.5244,-2.5283,-2.5246,-2.5164,-2.5193,-2.513,-2.5107,-2.5095,-2.4996,-2.4981,-2.5013,-2.4976,-2.4932,-2.5,-2.4918,-2.4927,-2.5023,-2.5046,-2.5064,-2.5072,-2.4812,0,0,0,0,0,-2.5427,-2.5427,-2.5343,-2.5385,-2.5369,-2.5285,-2.5277,-2.522,-2.5176,-2.516,-2.5105,-2.5066,-2.5054,-2.5047,-2.5031,-2.5083,-2.5065,-2.5115,-2.5134,-2.5149,-2.5158,-2.5183,-2.5205,-2.4979,-2.4979,-2.4979,0,0,-2.5503,-2.545,-2.5456,-2.5413,-2.5377,-2.538,-2.5272,-2.5279,-2.528,-2.516,-2.5175,-2.5135,-2.5084,-2.5121,-2.5134,-2.5091,-2.5217,-2.5161,-2.5174,-2.5174,-2.5195,-2.5216,-2.5236,-2.4985,-2.4984,-2.4983,0,0,-2.5642,-2.5602,-2.5633,-2.56,-2.5548,-2.5492,-2.55,-2.5429,-2.5398,-2.5412,-2.5323,-2.5322,-2.5303,-2.5272,-2.5253,-2.5384,-2.5316,-2.5381,-2.548,-2.5506,-2.5524,-2.5539,-2.5586,-2.5604,-2.539,-2.539,-2.5391,0,-2.5742,-2.5742,-2.5657,-2.567,-2.5654,-2.5548,-2.5579,-2.5551,-2.5497,-2.5488,-2.5441,-2.5417,-2.5375,-2.5403,-2.5436,-2.5424,-2.543,-2.5388,-2.5528,-2.5543,-2.5556,-2.56,-2.5618,-2.5399,-2.5398,-2.5397,-2.5396,0,-2.5869,-2.5871,-2.5902,-2.5854,-2.5841,-2.5864,-2.5782,-2.578,-2.5724,-2.5674,-2.569,-2.5638,-2.561,-2.5612,-2.5557,-2.5633,-2.5608,-2.5547,-2.5462,-2.5587,-2.5627,-2.5643,-2.5411,-2.5408,-2.5405,-2.5403,0,0,-2.6095,-2.6001,-2.6014,-2.5991,-2.5927,-2.5927,-2.5945,-2.5919,-2.5919,-2.5886,-2.5899,-2.5887,-2.583,-2.5809,-2.5749,-2.5773,-2.5881,-2.5708,-2.5705,-2.5742,-2.5963,-2.601,-2.6031,-2.5836,-2.5839,-2.5841,-2.5968,0,-2.6221,-2.6247,-2.6172,-2.6217,-2.6218,-2.6118,-2.6134,-2.6097,-2.6051,-2.6045,-2.5994,-2.5987,-2.5912,-2.5899,-2.5918,-2.5864,-2.5924,-2.5854,-2.5847,-2.5848,-2.5863,-2.6051,-2.61,-2.6222,-2.5982,-2.5985,-2.5987,0,-2.6372,-2.6348,-2.6393,-2.6328,-2.6326,-2.6342,-2.6313,-2.6309,-2.6265,-2.623,-2.6209,-2.614,-2.6154,-2.6075,-2.6092,-2.6047,-2.6039,-2.6013,-2.6016,-2.6011,-2.5925,-2.6052,-2.6259,-2.6277,-2.601,-2.6008,-2.6007,0,-2.6533,-2.6512,-2.6536,-2.652,-2.6445,-2.6459,-2.6428,-2.638,-2.637,-2.6345,-2.6338,-2.6315,-2.6302,-2.6286,-2.6213,-2.6162,-2.624,-2.6155,-2.6212,-2.6214,-2.6231,-2.6231,-2.644,-2.6228,-2.6228,-2.6228,-2.6227,0,-2.6682,-2.6713,-2.6608,-2.6623,-2.6656,-2.6571,-2.6606,-2.6565,-2.6524,-2.653,-2.6442,-2.645,-2.6354,-2.6351,-2.6294,-2.6318,-2.6313,-2.6285,-2.6269,-2.6292,-2.6296,-2.6286,-2.6276,-2.6232,-2.6231,-2.623,-2.6229,0,-2.6866,-2.6797,-2.6817,-2.6746,-2.6729,-2.6756,-2.6694,-2.6706,-2.6655,-2.6664,-2.6661,-2.6582,-2.6574,-2.6501,-2.6476,-2.6438,-2.6484,-2.6452,-2.6499,-2.6488,-2.655,-2.6545,-2.6758,-2.6782,-2.6557,-2.6559,-2.6561,0,-2.6966,-2.6988,-2.6919,-2.6917,-2.6891,-2.6889,-2.6879,-2.6796,-2.6789,-2.6743,-2.676,-2.6746,-2.6729,-2.6722,-2.6662,-2.6643,-2.661,-2.6686,-2.6606,-2.663,-2.6611,-2.6611,-2.6613,-2.6703,-2.6706,-2.6708,-2.671,0,-2.715,-2.7115,-2.7104,-2.7082,-2.7072,-2.7051,-2.7023,-2.7027,-2.6936,-2.6933,-2.6924,-2.6912,-2.6888,-2.6875,-2.6847,-2.6814,-2.6748,-2.6736,-2.6748,-2.6772,-2.6798,-2.6785,-2.6545,-2.6731,-2.6729,-2.6727,-2.6726,-2.6726,-2.7294,-2.731,-2.7265,-2.7256,-2.7227,-2.7205,-2.7212,-2.7164,-2.7156,-2.713,-2.7082,-2.7082,-2.7039,-2.6994,-2.6968,-2.6966,-2.6926,-2.6944,-2.6948,-2.6954,-2.6967,-2.68,-2.6961,-2.696,-2.6959,-2.6959,-2.6958,0,-2.7474,-2.7441,-2.7433,-2.7399,-2.7393,-2.7332,-2.7299,-2.7298,-2.7298,-2.7265,-2.7251,-2.7243,-2.723,-2.7171,-2.7152,-2.7162,-2.7131,-2.716,-2.7158,-2.7152,-2.7003,-2.6995,-2.7186,-2.7186,-2.7186,-2.7186,-2.7185,-2.7185,-2.7567,-2.759,-2.7551,-2.756,-2.7526,-2.7526,-2.7512,-2.7492,-2.7464,-2.7459,-2.7449,-2.741,-2.7367,-2.7344,-2.7331,-2.7313,-2.731,-2.735,-2.7323,-2.7184,-2.7162,-2.7142,-2.7133,-2.735,-2.735,-2.7471,-2.7473,-2.7473]},{"header":{"parameterUnit":"m.s-1","parameterCategory":1,"la1":30.2991,"la2":30.254,"lo1":-89.0895,"lo2":-89.0444,"dy":0.0017,"dx":0.0017,"nx":28,"ny":28,"refTime":"2025-12-04T03:00:00:Z","depth":0,"parameterNumber":3,"parameterNumberName":"V-component_of_WINDS"},"data":[0,0,0,0,0,0,0,0,0,0,0,0,0,0,0,0,0,0,0,0,0,0,0,0,0,0,0,0,0,0,0,0,0,0,0,0,0,0,0,0,0,0,0,0,0,0,0,0,0,0,0,0,0,0,0,0,0,0,-1.7281,-1.7281,0,-1.7259,-1.7259,-1.7259,-1.7175,-1.7173,-1.7171,-1.7169,-1.7147,-1.7148,-1.7149,0,0,0,0,0,0,0,0,0,0,0,0,0,-1.7251,-1.7252,-1.7281,-1.7281,-1.7281,-1.7259,-1.7259,-1.7259,-1.7175,-1.7173,-1.717,-1.7168,-1.7147,-1.7148,-1.715,0,0,0,0,0,0,0,0,0,0,0,0,0,-1.725,-1.7252,-1.7281,-1.7236,-1.7232,-1.7259,-1.7259,-1.7259,-1.7176,-1.7173,-1.717,-1.7167,-1.7146,-1.7148,-1.715,-1.7219,0,0,-1.7155,-1.7156,0,0,0,0,0,0,0,0,-1.725,-1.7251,-1.7243,-1.7239,-1.7235,-1.7217,-1.724,-1.7245,-1.7176,-1.7197,-1.7169,-1.7166,-1.7173,-1.7172,-1.7174,-1.7218,-1.7217,-1.7155,-1.7157,-1.7157,-1.7158,0,0,0,0,0,0,0,-1.725,-1.7251,-1.7272,-1.7243,-1.7238,-1.7217,-1.7214,-1.7241,-1.7201,-1.7195,-1.7189,-1.7187,-1.717,-1.7173,-1.7173,-1.7216,-1.7155,-1.7157,-1.7158,-1.7159,-1.7315,-1.7318,0,0,0,0,0,0,-1.7257,-1.7252,-1.7273,-1.7272,-1.7235,-1.722,-1.7216,-1.7225,-1.7201,-1.7194,-1.719,-1.7184,-1.7171,-1.7171,-1.7172,-1.7252,-1.7157,-1.7159,-1.716,-1.7312,-1.7316,-1.7319,0,0,0,0,0,0,-1.7256,-1.7259,-1.7274,-1.726,-1.7261,-1.7224,-1.7234,-1.7227,-1.7229,-1.7197,-1.7189,-1.72,-1.7169,-1.717,-1.7208,-1.725,-1.716,-1.7161,-1.7309,-1.7314,-1.7318,-1.7411,0,0,0,0,0,0,-1.7256,-1.726,-1.7285,-1.7261,-1.7262,-1.731,-1.7237,-1.7228,-1.7233,-1.7224,-1.7205,-1.7199,-1.7167,-1.7206,-1.721,-1.725,-1.7163,-1.7305,-1.7311,-1.7316,-1.7404,-1.7418,-1.743,0,0,0,0,0,-1.7255,-1.7313,-1.7287,-1.729,-1.7293,-1.7313,-1.7313,-1.7275,-1.7236,-1.7262,-1.7241,-1.7199,-1.7244,-1.721,-1.7214,-1.7256,-1.7302,-1.7309,-1.7316,-1.7398,-1.7416,-1.743,0,0,0,0,0,0,-1.7343,-1.7309,-1.728,-1.7332,-1.7326,-1.7299,-1.733,-1.7294,-1.7299,-1.7291,-1.7244,-1.724,-1.7285,-1.7274,-1.7237,-1.7322,-1.7266,-1.7274,-1.7327,-1.7344,-1.7356,-1.7359,-1.7164,0,0,0,0,0,-1.7368,-1.7387,-1.7356,-1.7404,-1.7403,-1.7367,-1.7374,-1.7346,-1.7337,-1.7335,-1.7316,-1.731,-1.7323,-1.7332,-1.7342,-1.7402,-1.7397,-1.7433,-1.7446,-1.7457,-1.7465,-1.7496,-1.7512,-1.7342,-1.7342,-1.7342,0,0,-1.742,-1.7404,-1.7419,-1.7422,-1.7414,-1.7434,-1.7366,-1.739,-1.7405,-1.7338,-1.7373,-1.736,-1.735,-1.74,-1.742,-1.7392,-1.751,-1.7466,-1.7475,-1.7476,-1.7504,-1.7521,-1.7535,-1.7347,-1.7346,-1.7345,0,0,-1.7527,-1.7516,-1.7556,-1.7549,-1.7538,-1.7514,-1.7523,-1.7502,-1.749,-1.7524,-1.7475,-1.7492,-1.7515,-1.751,-1.751,-1.7615,-1.7577,-1.7619,-1.7689,-1.772,-1.7733,-1.7745,-1.7783,-1.7797,-1.7627,-1.7627,-1.7627,0,-1.7594,-1.7623,-1.7581,-1.7609,-1.7612,-1.7552,-1.7591,-1.7587,-1.758,-1.7583,-1.7551,-1.7579,-1.7568,-1.7615,-1.7641,-1.7643,-1.7653,-1.7622,-1.7734,-1.7746,-1.7756,-1.7792,-1.7806,-1.7633,-1.7632,-1.7631,-1.7631,0,-1.7706,-1.7727,-1.776,-1.7755,-1.7761,-1.7795,-1.7758,-1.7769,-1.774,-1.7719,-1.7755,-1.774,-1.7746,-1.7755,-1.7726,-1.7799,-1.7782,-1.7743,-1.7686,-1.7778,-1.7811,-1.7824,-1.764,-1.7638,-1.7637,-1.7635,0,0,-1.7867,-1.7838,-1.7851,-1.7848,-1.7831,-1.7847,-1.7878,-1.7883,-1.7895,-1.7892,-1.7917,-1.7938,-1.7902,-1.7902,-1.7873,-1.79,-1.7985,-1.7857,-1.7856,-1.7882,-1.8064,-1.8095,-1.8111,-1.7959,-1.7961,-1.7963,-1.8066,0,-1.7969,-1.8021,-1.7984,-1.8042,-1.8061,-1.8004,-1.8031,-1.8024,-1.8006,-1.8019,-1.7999,-1.8015,-1.7965,-1.7966,-1.799,-1.7969,-1.8021,-1.7961,-1.7983,-1.7984,-1.7988,-1.8128,-1.816,-1.8258,-1.8078,-1.808,-1.8082,0,-1.8095,-1.8098,-1.8158,-1.8138,-1.8144,-1.8169,-1.8172,-1.8185,-1.8176,-1.8161,-1.8162,-1.8125,-1.8154,-1.8098,-1.8138,-1.8099,-1.8105,-1.8097,-1.8099,-1.8101,-1.8039,-1.8134,-1.8288,-1.8303,-1.8101,-1.81,-1.8098,0,-1.8208,-1.8226,-1.8265,-1.8264,-1.8241,-1.826,-1.8251,-1.8239,-1.8245,-1.8247,-1.8251,-1.8256,-1.826,-1.8265,-1.8231,-1.8193,-1.8276,-1.8217,-1.8265,-1.8266,-1.8286,-1.8285,-1.8443,-1.8288,-1.8288,-1.8288,-1.8287,0,-1.8326,-1.8365,-1.8315,-1.8339,-1.8382,-1.8338,-1.8382,-1.8367,-1.8357,-1.8377,-1.8328,-1.8348,-1.8301,-1.8317,-1.829,-1.8328,-1.8329,-1.8318,-1.8311,-1.8323,-1.8325,-1.8328,-1.8321,-1.8292,-1.8291,-1.829,-1.8289,0,-1.8459,-1.8427,-1.8466,-1.8441,-1.8436,-1.8468,-1.8447,-1.8468,-1.8446,-1.8472,-1.8476,-1.8442,-1.8457,-1.8424,-1.8434,-1.8416,-1.8471,-1.8452,-1.8474,-1.8469,-1.8519,-1.8516,-1.8686,-1.8706,-1.8537,-1.8539,-1.854,0,-1.8537,-1.8566,-1.8545,-1.8555,-1.8549,-1.8565,-1.8571,-1.853,-1.8538,-1.853,-1.8552,-1.8564,-1.8571,-1.8598,-1.8575,-1.8583,-1.8565,-1.8624,-1.8566,-1.8578,-1.8567,-1.8567,-1.857,-1.8636,-1.8638,-1.864,-1.8641,0,-1.8679,-1.8662,-1.8672,-1.8678,-1.8686,-1.8688,-1.8687,-1.8698,-1.8654,-1.8666,-1.8681,-1.8687,-1.8698,-1.871,-1.8713,-1.8704,-1.8666,-1.866,-1.8671,-1.8685,-1.8697,-1.8693,-1.8508,-1.8656,-1.8655,-1.8654,-1.8653,-1.8652,-1.8788,-1.8811,-1.88,-1.8813,-1.8808,-1.8808,-1.8827,-1.8807,-1.8819,-1.8825,-1.88,-1.8821,-1.8812,-1.8811,-1.8807,-1.8823,-1.8796,-1.8813,-1.8818,-1.8823,-1.8832,-1.8694,-1.8823,-1.8823,-1.8822,-1.8822,-1.8821,0,-1.8928,-1.8918,-1.8931,-1.893,-1.8941,-1.8904,-1.8901,-1.8912,-1.8932,-1.8926,-1.8934,-1.8952,-1.8964,-1.8941,-1.895,-1.8967,-1.895,-1.8971,-1.897,-1.8969,-1.8854,-1.8844,-1.8985,-1.8985,-1.8985,-1.8985,-1.8985,-1.8984,-1.9002,-1.904,-1.9022,-1.9057,-1.9046,-1.9067,-1.9068,-1.9068,-1.9063,-1.9086,-1.9096,-1.9081,-1.9068,-1.9075,-1.9085,-1.9078,-1.9084,-1.9111,-1.9099,-1.8992,-1.8976,-1.8961,-1.8951,-1.9113,-1.9113,-1.9212,-1.9213,-1.9213]}]]